风云四号B星 (FENGYUN 4B)

导读

FENGYUN 4B即风云四号B星,是中国发射的新一代静止轨道气象卫星,于2021年6月2日成功发射。它搭载快速成像仪等载荷,可提供高频次、高精度气象观测数据,提升对台风、暴雨等灾害天气监测能力,服务气象预报、气候预测等领域,是中国气象观测体系的重要组成部分。

基本信息
目录编号:
48808
目录名称:
FENGYUN 4B
国际标识:
2021-047A
轨道中心:
EARTH
卫星名称:
风云四号B星
卫星全名:
风云四号B星 (FENGYUN 4B)
卫星状态:
在轨 (已飞行1881 天)
发射日期:
2021-06-02 UTC
国别 :
中国 (CN)
星等 :
--
轨道信息
数据来源 国际轨道数据 AOE轨道数据
星历时间 2026-07-27T09:04:39+0800
20小时前
查看轨道信息
2026-07-26T04:00:00+0800
2天前
查看轨道信息
半长轴 42163.971km 42163.775km
偏心率 0.000676 0.0006818
轨道倾角 0.248° 0.246°
近地点辐角 275.108° 275.027°
升交点赤经 80.483° 80.503°
平近点角 70.008° 352.698°
近地点 35757.331km 35756.89km
远地点 35814.337km 35814.386km
周期 1436.058分钟 1436.048分钟
每日圈数 1.002745 1.002752
详细信息
平衡模式:
三轴稳定
覆盖范围:
亚洲
运营商:
夏威夷科学技术博物馆
运营商所在国:
美国
制造商(研发单位):
上海航天技术研究院
制造商所在国:
中国
使用方式:
暂无
卫星简介
风云气象卫星系列(FENGYUN Meteorological Satellite)是中国于1977年开始研制的气象卫星系列,目前发射了风云一号、风云二号、风云三号、风云四号等卫星系列。其中,风云二号系列、风云四号系列为风云静止卫星,风云一号系列、风云三号系列为风云极轨卫星。该卫星仍在工作。
2D轨道图
3D轨道图
轨道高度分析图
轨道倾角分析图
轨道综合分析图
查看轨道综合分析图